Simultaneous Nadir Overpasses (SNOs) Predictions

Prediction of SNOs over PacNW region [( 10.00, 139.50) to ( 22.70, 165.60)] between AQUA and NPP Satellites:

Table of predicted SNOs over PacNW region for the next 30.0 days since TLE Epoch: 8/6/2016
Index Date (AQUA) Time (AQUA) AQUA Lat,Lon Date (NPP) Time (NPP) NPP Lat,Lon Distance(km) Time Diff (sec)
1 08/09/2016 15:09:33 22.61, 159.84 08/09/2016 15:11:41 23.21, 157.28 270.44 128
2 08/12/2016 03:31:23 22.66, 147.53 08/12/2016 03:27:54 22.59, 145.83 173.94 209
3 08/17/2016 15:58:57 22.63, 147.48 08/17/2016 16:02:20 23.27, 144.62 301.48 203
4 08/20/2016 02:41:54 22.68, 159.88 08/20/2016 02:38:24 27.29, 157.33 573.21 210
5 08/25/2016 15:09:27 22.64, 159.85 08/25/2016 15:11:31 23.18, 157.31 267.80 124
6 08/28/2016 03:31:16 22.66, 147.54 08/28/2016 03:27:47 22.83, 145.81 178.65 209
7 09/02/2016 15:58:50 22.63, 147.50 09/02/2016 16:02:09 23.29, 144.66 299.47 199




NCC Satellite Simultaneous Nadir Overpasses (SNOs) Prediction Service
